Weather History for KDHT - April, 2013

Change the Weather History Date:

Monday, April 22, 2013

  Actual Average Record
Temperature  
Mean Temperature 60 °F 56 °F  
Max Temperature 86 °F 71 °F 94 °F (1989)
Min Temperature 33 °F 40 °F 27 °F (1982)
Degree Days  
Heating Degree Days 5 10  
Month to date heating degree days 339 280  
Since 1 July heating degree days 4197 4534  
Cooling Degree Days 0 0  
Month to date cooling degree days 1 0  
Year to date cooling degree days 1 0  
Growing Degree Days 12 (Base 50)    
Moisture  
Dew Point 29 °F    
Average Humidity 45    
Maximum Humidity 82    
Minimum Humidity 7    
Precipitation  
Precipitation 0.00 in 0.04 in 0.36 in (1957)
Month to date precipitation T 0.73  
Year to date precipitation 0.86 2.82  
Snow  
Snow 0.00 in 0.10 in 2.00 in (1995)
Month to date snowfall T 1.1  
Since 1 July snowfall 21.6 18.8  
Snow Depth 0.00 in    
Sea Level Pressure  
Sea Level Pressure 29.80 in    
Wind  
Wind Speed 19 mph (WNW)    
Max Wind Speed 47 mph    
Max Gust Speed 56 mph    
Visibility 8 miles    
Events      
T = Trace of Precipitation, MM = Missing Value Source: NWS Daily Summary

Daily Weather History Graph

Daily Weather History Graph

Search for Another Location

Airport or City:

Trip Planner

Search our weather history database for the weather conditions in past years. The results will help you decide how hot, cold, wet, or windy it might be!

Date:

Astronomy

Apr. 22, 2013 Rise Set
Actual Time 7:07 AM CDT 8:30 PM CDT
Civil Twilight 6:40 AM CDT 8:56 PM CDT
Nautical Twilight 6:08 AM CDT 9:29 PM CDT
Astronomical Twilight 5:35 AM CDT 10:02 PM CDT
Moon 5:26 PM CDT (4/22) 4:57 AM CDT (4/22)
Length of Visible Light 14h 16m
Length of Day
13h 22m
Waxing Gibbous, 88% of the Moon is Illuminated
Apr 22
Waxing Gibbous
Apr 25
Full
May 2
Last Quarter
May 9
New
May 17
First Quarter

Hourly Weather History & Observations

Time (CDT) Temp. Windchill Dew Point Humidity Pressure Visibility Wind Dir Wind Speed Gust Speed Precip Events Conditions
12:53 AM 55.0 °F - 35.1 °F 47% 29.86 in 10.0 mi SSE 15.0 mph - N/A   Clear
1:53 AM 54.0 °F - 37.9 °F 55% 29.85 in 10.0 mi South 15.0 mph - N/A   Clear
2:53 AM 52.0 °F - 39.9 °F 63% 29.83 in 10.0 mi South 13.8 mph - N/A   Clear
3:53 AM 50.0 °F - 41.0 °F 71% 29.81 in 10.0 mi South 16.1 mph - N/A   Clear
4:53 AM 46.9 °F - 39.0 °F 74% 29.81 in 10.0 mi South 13.8 mph - N/A   Clear
5:53 AM 43.0 °F 37.7 °F 37.9 °F 82% 29.81 in 10.0 mi SSW 9.2 mph - N/A   Clear
6:53 AM 42.1 °F 37.1 °F 35.1 °F 76% 29.82 in 10.0 mi SW 8.1 mph - N/A   Clear
7:53 AM 42.1 °F - 34.0 °F 73% 29.82 in 9.0 mi Calm Calm - N/A   Clear
8:53 AM 51.1 °F - 30.0 °F 44% 29.83 in 8.0 mi SW 10.4 mph - N/A   Clear
9:53 AM 61.0 °F - 21.9 °F 22% 29.80 in 10.0 mi WNW 6.9 mph - N/A   Clear
10:53 AM 68.0 °F - 19.9 °F 16% 29.78 in 10.0 mi SSW 10.4 mph - N/A   Clear
11:53 AM 75.0 °F - 19.9 °F 13% 29.76 in 10.0 mi SSW 13.8 mph 19.6 mph N/A   Clear
12:48 PM 82.4 °F - 17.6 °F 9% 29.87 in 10.0 mi West 20.7 mph 27.6 mph N/A   Clear
12:53 PM 81.0 °F - 16.0 °F 9% 29.72 in 10.0 mi West 15.0 mph 27.6 mph N/A   Clear
1:00 PM 80.6 °F - 15.8 °F 9% 29.86 in 10.0 mi WNW 16.1 mph 27.6 mph N/A   Clear
1:53 PM 82.9 °F - 16.0 °F 8% 29.69 in 10.0 mi West 15.0 mph 29.9 mph N/A   Clear
2:53 PM 84.9 °F - 16.0 °F 8% 29.65 in 10.0 mi West 12.7 mph 18.4 mph N/A   Clear
3:53 PM 82.9 °F - 14.0 °F 8% 29.62 in 10.0 mi WNW 9.2 mph 20.7 mph N/A   Clear
4:53 PM 82.9 °F - 12.9 °F 7% 29.59 in 10.0 mi SSW 12.7 mph 20.7 mph N/A   Clear
5:25 PM 77.0 °F - 28.4 °F 17% 29.74 in 10.0 mi NE 26.5 mph 35.7 mph N/A   Clear
5:53 PM 75.9 °F - 27.0 °F 16% 29.63 in 10.0 mi ENE 23.0 mph 32.2 mph N/A   Partly Cloudy
6:53 PM 72.0 °F - 28.9 °F 20% 29.66 in 10.0 mi NE 29.9 mph 40.3 mph N/A   Clear
7:18 PM 66.2 °F - 39.2 °F 37% 29.77 in 1.8 mi NE 42.6 mph 52.9 mph N/A   Haze
7:23 PM 64.4 °F - 39.2 °F 40% 29.78 in 1.2 mi NE 47.2 mph 56.4 mph N/A   Haze
7:53 PM 55.0 °F - 39.9 °F 57% 29.78 in 1.2 mi NE 39.1 mph 56.4 mph N/A   Haze
8:16 PM 51.8 °F - 37.4 °F 58% 29.92 in 2.5 mi NNE 35.7 mph 49.5 mph N/A   Haze
8:35 PM 46.4 °F 36.1 °F 35.6 °F 66% 29.94 in 3.0 mi North 38.0 mph 49.5 mph N/A   Haze
8:53 PM 45.0 °F 34.1 °F 35.1 °F 68% 29.92 in 6.0 mi NNE 38.0 mph 49.5 mph N/A   Haze
9:53 PM 41.0 °F 29.1 °F 30.0 °F 65% 29.96 in 7.0 mi North 34.5 mph 48.3 mph N/A   Overcast
10:53 PM 39.0 °F 26.2 °F 27.0 °F 62% 29.99 in 6.0 mi North 35.7 mph 50.6 mph N/A   Haze
11:53 PM 37.0 °F 23.3 °F 25.0 °F 62% 29.99 in 8.0 mi North 36.8 mph 49.5 mph N/A   Overcast